Retour au catalogue

GLOBALSTAR M035

ActifCommunicationsMEO
NORAD 25851·PAYLOAD·🇺🇸 United States

Lancé Jul 10, 1999 depuis Cape Canaveral Space Force Station

Loading…

Prochains Passages (prochaines 24 heures)

TLE

FraisSource: Space-Track

Époque: Sep 14, 2026, 20:46 UTC

1 25851U 99037A   26257.86528029 -.00000027  00000-0  13749-2 0  9997
2 25851  51.9927 120.9804 0014214   1.9862  12.8950 11.04543016146504

Suivez GLOBALSTAR M035 en temps réel avec AllMySat

Download on the App Store